Eugene, OR

9:53 AM PDT on June 29, 2017 (GMT -0700)
Mahlon Sweet

Weather History for KEUG - April, 2013

Change the Weather History Date:

Friday, April 19, 2013

  Actual Average Record
Temperature  
Mean Temperature 55 °F 50 °F  
Max Temperature 61 °F 61 °F 85 °F (1934)
Min Temperature 49 °F 40 °F 28 °F (1972)
Degree Days  
Heating Degree Days 10 15  
Month to date heating degree days 274 297  
Since 1 July heating degree days 3897 4193  
Cooling Degree Days 0 0  
Month to date cooling degree days 0 0  
Year to date cooling degree days 0 0  
Growing Degree Days 4 (Base 50)    
Moisture  
Dew Point 48 °F    
Average Humidity 83    
Maximum Humidity 96    
Minimum Humidity 69    
Precipitation  
Precipitation 0.12 in 0.11 in 1.02 in (1925)
Month to date precipitation 1.45 2.28  
Year to date precipitation 6.54 19.57  
Snow  
Snow 0.00 in - - ()
Month to date snowfall 0.0  
Since 1 July snowfall 0.0  
Snow Depth 0.00 in    
Sea Level Pressure  
Sea Level Pressure 30.30 in    
Wind  
Wind Speed 10 mph (SW)    
Max Wind Speed 16 mph    
Max Gust Speed 20 mph    
Visibility 9 miles    
Events Rain    
T = Trace of Precipitation, MM = Missing Value Source: NWS Daily Summary

Daily Weather History Graph

Daily Weather History Graph

Search for Another Location

Airport or City:

Trip Planner

Search our weather history database for the weather conditions in past years. The results will help you decide how hot, cold, wet, or windy it might be!

Date:

Astronomy

Apr. 19, 2013 Rise Set
Actual Time 6:22 AM PDT 8:02 PM PDT
Civil Twilight 5:51 AM PDT 8:32 PM PDT
Nautical Twilight 5:14 AM PDT 9:10 PM PDT
Astronomical Twilight 4:34 AM PDT 9:50 PM PDT
Moon 1:39 PM PDT (4/19) 2:54 AM PDT (4/19)
Length of Visible Light 14h 41m
Length of Day
13h 40m
Waxing Gibbous, 62% of the Moon is Illuminated
Apr 19
Waxing Gibbous
Apr 25
Full
May 2
Last Quarter
May 9
New
May 17
First Quarter

Hourly Weather History & Observations

Time (PDT) Temp. Dew Point Humidity Pressure Visibility Wind Dir Wind Speed Gust Speed Precip Events Conditions
12:54 AM 50.0 °F 45.0 °F 83% 30.37 in 10.0 mi SW 8.1 mph - N/A   Overcast
1:54 AM 48.9 °F 46.0 °F 90% 30.36 in 10.0 mi SSW 5.8 mph - N/A   Mostly Cloudy
2:54 AM 48.9 °F 46.0 °F 90% 30.33 in 10.0 mi South 6.9 mph - N/A   Overcast
3:54 AM 50.0 °F 46.0 °F 86% 30.33 in 10.0 mi SSW 8.1 mph - N/A   Overcast
4:54 AM 48.9 °F 46.0 °F 90% 30.31 in 10.0 mi South 6.9 mph - N/A   Overcast
5:54 AM 48.9 °F 46.0 °F 90% 30.28 in 10.0 mi South 9.2 mph - N/A   Mostly Cloudy
6:18 AM 48.2 °F 46.4 °F 93% 30.26 in 10.0 mi South 11.5 mph - 0.00 in Rain Light Rain
6:54 AM 48.9 °F 46.9 °F 93% 30.27 in 4.0 mi South 6.9 mph - 0.03 in Rain Light Rain
7:54 AM 48.9 °F 46.9 °F 93% 30.27 in 6.0 mi South 8.1 mph - 0.05 in Rain Light Rain
8:54 AM 51.1 °F 48.0 °F 89% 30.26 in 10.0 mi South 9.2 mph - 0.02 in   Overcast
9:54 AM 52.0 °F 50.0 °F 93% 30.26 in 8.0 mi South 13.8 mph - 0.00 in   Overcast
10:54 AM 54.0 °F 50.0 °F 86% 30.27 in 6.0 mi SW 10.4 mph - N/A   Overcast
11:10 AM 53.6 °F 50.0 °F 88% 30.27 in 3.0 mi SW 12.7 mph - 0.00 in   Overcast
11:37 AM 53.6 °F 51.8 °F 94% 30.27 in 2.0 mi SSW 15.0 mph - 0.01 in   Overcast
11:54 AM 54.0 °F 51.1 °F 90% 30.28 in 3.0 mi SSW 12.7 mph - 0.01 in   Overcast
12:54 PM 55.0 °F 52.0 °F 89% 30.30 in 3.0 mi WSW 10.4 mph - 0.01 in Rain Light Rain
1:20 PM 55.4 °F 53.6 °F 94% 30.29 in 10.0 mi SW 10.4 mph - 0.00 in   Overcast
1:54 PM 55.4 °F 51.8 °F 88% 30.30 in 10.0 mi SW 12.7 mph - N/A   Mostly Cloudy
2:54 PM 59.0 °F 52.0 °F 78% 30.30 in 10.0 mi SW 12.7 mph - N/A   Mostly Cloudy
3:25 PM 57.2 °F 50.0 °F 77% 30.30 in 10.0 mi WSW 12.7 mph - N/A   Mostly Cloudy
3:54 PM 59.0 °F 50.0 °F 72% 30.30 in 10.0 mi WSW 12.7 mph - N/A   Mostly Cloudy
4:32 PM 60.8 °F 50.0 °F 68% 30.30 in 10.0 mi West 12.7 mph - N/A   Mostly Cloudy
4:54 PM 60.1 °F 50.0 °F 69% 30.30 in 10.0 mi WSW 11.5 mph - N/A   Mostly Cloudy
5:54 PM 57.9 °F 48.0 °F 70% 30.30 in 10.0 mi West 8.1 mph - N/A   Mostly Cloudy
6:54 PM 55.9 °F 46.9 °F 72% 30.30 in 10.0 mi West 10.4 mph - N/A   Scattered Clouds
7:54 PM 52.0 °F 46.0 °F 80% 30.30 in 10.0 mi Calm Calm - N/A   Scattered Clouds
8:54 PM 52.0 °F 46.0 °F 80% 30.31 in 10.0 mi West 6.9 mph - N/A   Mostly Cloudy
9:20 PM 50.0 °F 46.4 °F 87% 30.32 in 10.0 mi SW 8.1 mph - N/A   Mostly Cloudy
9:54 PM 48.9 °F 46.0 °F 90% 30.33 in 10.0 mi SW 3.5 mph - N/A   Mostly Cloudy
10:34 PM 51.8 °F 46.4 °F 82% 30.33 in 10.0 mi WSW 6.9 mph - N/A   Overcast
10:54 PM 51.1 °F 46.0 °F 83% 30.34 in 10.0 mi WSW 6.9 mph - N/A   Overcast
11:54 PM 48.0 °F 45.0 °F 89% 30.34 in 10.0 mi West 8.1 mph - N/A   Partly Cloudy